Shirley, NY

11:08 AM EDT on April 23, 2017 (GMT -0400)
Brookhaven

Weather History for KHWV - April, 2013

Change the Weather History Date:

Saturday, April 13, 2013

  Actual Average (KISP) Record (KISP)
Temperature  
Mean Temperature 46 °F -  
Max Temperature 57 °F 57 °F 71 °F (2001)
Min Temperature 37 °F 38 °F 27 °F (1990)
Degree Days  
Heating Degree Days 19    
Moisture  
Dew Point 36 °F    
Average Humidity 73    
Maximum Humidity 93    
Minimum Humidity 40    
Precipitation  
Precipitation 0.07 in - - ()
Sea Level Pressure  
Sea Level Pressure 29.87 in    
Wind  
Wind Speed 9 mph (NW)    
Max Wind Speed 13 mph    
Max Gust Speed 23 mph    
Visibility 10 miles    
Events Rain    
Averages and records for this station are not official NWS values.
T = Trace of Precipitation, MM = Missing Value Source: NWS Daily Summary

Daily Weather History Graph

Daily Weather History Graph

Search for Another Location

Airport or City:

Trip Planner

Search our weather history database for the weather conditions in past years. The results will help you decide how hot, cold, wet, or windy it might be!

Date:

Astronomy

Apr. 13, 2013 Rise Set
Actual Time 6:15 AM EDT 7:29 PM EDT
Civil Twilight 5:47 AM EDT 7:57 PM EDT
Nautical Twilight 5:13 AM EDT 8:31 PM EDT
Astronomical Twilight 4:37 AM EDT 9:07 PM EDT
Moon 8:03 AM EDT (4/13) 10:51 PM EDT (4/13)
Length of Visible Light 14h 10m
Length of Day
13h 13m
Waxing Crescent, 10% of the Moon is Illuminated
Apr 13
Waxing Crescent
Apr 18
First Quarter
Apr 25
Full
May 2
Last Quarter
May 9
New

Hourly Weather History & Observations

Time (EDT) Temp. Windchill Dew Point Humidity Pressure Visibility Wind Dir Wind Speed Gust Speed Precip Events Conditions
12:56 AM 39.9 °F 32.9 °F 37.9 °F 93% 29.76 in 8.0 mi North 11.5 mph - 0.01 in Rain Light Rain
1:56 AM 39.9 °F 34.5 °F 37.9 °F 93% 29.75 in 10.0 mi North 8.1 mph - 0.02 in Rain Light Rain
2:56 AM 39.9 °F 32.9 °F 37.9 °F 93% 29.76 in 10.0 mi NNW 11.5 mph - 0.04 in Rain Light Rain
3:56 AM 39.0 °F 32.3 °F 37.0 °F 93% 29.79 in 10.0 mi North 10.4 mph - 0.00 in   Overcast
4:15 AM 39.2 °F 32.5 °F 35.6 °F 87% 29.80 in 10.0 mi North 10.4 mph - N/A   Overcast
4:56 AM 39.0 °F 32.3 °F 36.0 °F 89% 29.81 in 10.0 mi North 10.4 mph - N/A   Overcast
5:56 AM 39.0 °F 31.4 °F 35.1 °F 86% 29.82 in 10.0 mi North 12.7 mph 20.7 mph N/A   Overcast
6:56 AM 37.9 °F 31.5 °F 35.1 °F 89% 29.83 in 10.0 mi North 9.2 mph - N/A   Overcast
7:22 AM 37.4 °F 31.4 °F 35.6 °F 93% 29.85 in 10.0 mi North 8.1 mph - N/A   Mostly Cloudy
7:56 AM 39.0 °F 34.0 °F 36.0 °F 89% 29.87 in 10.0 mi North 6.9 mph - N/A   Overcast
8:43 AM 41.0 °F 37.1 °F 35.6 °F 81% 29.88 in 10.0 mi NNW 5.8 mph - N/A   Scattered Clouds
8:56 AM 42.1 °F 37.1 °F 37.0 °F 82% 29.88 in 10.0 mi NNW 8.1 mph - N/A   Clear
9:56 AM 46.0 °F 43.1 °F 37.0 °F 71% 29.89 in 10.0 mi North 5.8 mph - N/A   Clear
10:56 AM 50.0 °F - 39.0 °F 66% 29.91 in 10.0 mi Variable 3.5 mph - N/A   Clear
11:56 AM 53.1 °F - 34.0 °F 48% 29.89 in 10.0 mi North 11.5 mph 23.0 mph N/A   Mostly Cloudy
12:56 PM 53.1 °F - 33.1 °F 47% 29.88 in 10.0 mi NW 12.7 mph 19.6 mph N/A   Overcast
1:56 PM 54.0 °F - 33.1 °F 45% 29.88 in 10.0 mi NW 9.2 mph 19.6 mph N/A   Scattered Clouds
2:56 PM 55.9 °F - 32.0 °F 40% 29.88 in 10.0 mi WNW 11.5 mph - N/A   Mostly Cloudy
3:56 PM 55.0 °F - 32.0 °F 42% 29.88 in 10.0 mi West 6.9 mph - N/A   Mostly Cloudy
4:56 PM 54.0 °F - 35.1 °F 49% 29.88 in 10.0 mi SSW 11.5 mph - N/A   Scattered Clouds
5:56 PM 55.0 °F - 35.1 °F 47% 29.90 in 10.0 mi SW 8.1 mph - N/A   Scattered Clouds
6:56 PM 50.0 °F - 37.9 °F 63% 29.89 in 10.0 mi SSW 9.2 mph - N/A   Partly Cloudy
7:56 PM 46.9 °F - 39.0 °F 74% 29.93 in 10.0 mi SW 8.1 mph - N/A   Clear
8:56 PM 46.0 °F 43.9 °F 39.0 °F 76% 29.95 in 10.0 mi SSW 4.6 mph - N/A   Clear
9:56 PM 45.0 °F 43.5 °F 37.9 °F 76% 29.98 in 10.0 mi SW 3.5 mph - N/A   Clear
10:56 PM 44.1 °F 42.5 °F 37.9 °F 79% 29.98 in 10.0 mi WSW 3.5 mph - N/A   Clear
11:56 PM 44.1 °F 42.5 °F 39.0 °F 82% 29.99 in 10.0 mi SW 3.5 mph - N/A   Mostly Cloudy